Time,TemperatureF,DewpointF,PressureIn,WindDirection,WindDirectionDegrees,WindSpeedMPH,WindSpeedGustMPH,Humidity,HourlyPrecipIn,Conditions,Clouds,dailyrainin,SoftwareType,DateUTC
2013-05-16 00:12:00,67.3,44.0,29.60,NW,315,3.7,-999.0,43,-99.99,,,0.00,Acu-Link.com,2013-05-16 04:12:00,
2013-05-16 00:27:00,66.7,43.5,29.60,ENE,67,0.0,-999.0,43,-99.99,,,0.00,Acu-Link.com,2013-05-16 04:27:00,
2013-05-16 00:42:00,65.7,43.8,29.59,NNE,22,1.1,-999.0,45,-99.99,,,0.00,Acu-Link.com,2013-05-16 04:42:00,
2013-05-16 00:58:00,64.4,43.7,29.60,WSW,247,3.2,-999.0,47,-99.99,,,0.00,Acu-Link.com,2013-05-16 04:58:00,
2013-05-16 01:13:00,63.1,43.6,29.60,NNW,337,1.7,-999.0,49,-99.99,,,0.00,Acu-Link.com,2013-05-16 05:13:00,
2013-05-16 01:28:00,61.9,43.6,29.60,NNE,22,0.0,-999.0,51,-99.99,,,0.00,Acu-Link.com,2013-05-16 05:28:00,
2013-05-16 01:44:00,61.0,43.2,29.61,WNW,292,0.0,-999.0,52,-99.99,,,0.00,Acu-Link.com,2013-05-16 05:44:00,
2013-05-16 01:59:00,60.1,43.4,29.61,West,270,0.0,-999.0,54,-99.99,,,0.00,Acu-Link.com,2013-05-16 05:59:00,
2013-05-16 02:14:00,58.6,43.9,29.61,WNW,292,0.0,-999.0,58,-99.99,,,0.00,Acu-Link.com,2013-05-16 06:14:00,
2013-05-16 02:30:00,57.7,43.5,29.61,West,270,0.0,-999.0,59,-99.99,,,0.00,Acu-Link.com,2013-05-16 06:30:00,
2013-05-16 02:45:00,57.0,43.7,29.61,NNE,22,2.7,-999.0,61,-99.99,,,0.00,Acu-Link.com,2013-05-16 06:45:00,
2013-05-16 03:00:00,57.0,43.7,29.61,SW,225,1.1,-999.0,61,-99.99,,,0.00,Acu-Link.com,2013-05-16 07:00:00,
2013-05-16 03:15:00,56.8,43.5,29.61,NW,315,0.0,-999.0,61,-99.99,,,0.00,Acu-Link.com,2013-05-16 07:15:00,
2013-05-16 03:31:00,56.1,43.7,29.62,NW,315,0.0,-999.0,63,-99.99,,,0.00,Acu-Link.com,2013-05-16 07:31:00,
2013-05-16 03:46:00,55.4,43.8,29.62,West,270,1.1,-999.0,65,-99.99,,,0.00,Acu-Link.com,2013-05-16 07:46:00,
2013-05-16 04:01:00,55.4,43.8,29.62,NNW,337,0.0,-999.0,65,-99.99,,,0.00,Acu-Link.com,2013-05-16 08:01:00,
2013-05-16 04:17:00,55.4,43.8,29.62,South,180,0.0,-999.0,65,-99.99,,,0.00,Acu-Link.com,2013-05-16 08:17:00,
2013-05-16 04:32:00,54.7,44.3,29.63,WSW,247,0.0,-999.0,68,-99.99,,,0.00,Acu-Link.com,2013-05-16 08:32:00,
2013-05-16 04:48:00,54.5,44.5,29.63,WSW,247,0.0,-999.0,69,-99.99,,,0.00,Acu-Link.com,2013-05-16 08:48:00,
2013-05-16 05:03:00,54.1,44.9,29.64,West,270,0.0,-999.0,71,-99.99,,,0.00,Acu-Link.com,2013-05-16 09:03:00,
2013-05-16 05:18:00,52.7,45.0,29.64,SW,225,0.0,-999.0,75,-99.99,,,0.00,Acu-Link.com,2013-05-16 09:18:00,
2013-05-16 05:33:00,52.0,45.0,29.64,SW,225,0.0,-999.0,77,-99.99,,,0.00,Acu-Link.com,2013-05-16 09:33:00,
2013-05-16 05:48:00,51.8,44.5,29.65,WSW,247,0.0,-999.0,76,-99.99,,,0.00,Acu-Link.com,2013-05-16 09:48:00,
2013-05-16 06:04:00,52.5,44.8,29.65,West,270,0.0,-999.0,75,-99.99,,,0.00,Acu-Link.com,2013-05-16 10:04:00,
2013-05-16 06:19:00,53.4,45.0,29.65,West,270,2.2,-999.0,73,-99.99,,,0.00,Acu-Link.com,2013-05-16 10:19:00,
2013-05-16 06:34:00,53.8,45.4,29.66,WSW,247,0.0,-999.0,73,-99.99,,,0.00,Acu-Link.com,2013-05-16 10:34:00,
2013-05-16 06:50:00,54.1,45.3,29.66,West,270,1.7,-999.0,72,-99.99,,,0.00,Acu-Link.com,2013-05-16 10:50:00,
2013-05-16 07:05:00,55.2,45.6,29.67,South,180,2.2,-999.0,70,-99.99,,,0.00,Acu-Link.com,2013-05-16 11:05:00,
2013-05-16 07:20:00,56.1,46.1,29.67,NW,315,0.0,-999.0,69,-99.99,,,0.00,Acu-Link.com,2013-05-16 11:20:00,
2013-05-16 07:36:00,58.5,47.2,29.67,West,270,0.0,-999.0,66,-99.99,,,0.00,Acu-Link.com,2013-05-16 11:36:00,
2013-05-16 07:51:00,60.6,47.1,29.68,SSE,157,1.1,-999.0,61,-99.99,,,0.00,Acu-Link.com,2013-05-16 11:51:00,
2013-05-16 08:06:00,62.6,47.6,29.68,South,180,2.2,-999.0,58,-99.99,,,0.00,Acu-Link.com,2013-05-16 12:06:00,
2013-05-16 08:22:00,65.8,48.2,29.68,NNE,22,0.0,-999.0,53,-99.99,,,0.00,Acu-Link.com,2013-05-16 12:22:00,
2013-05-16 08:37:00,66.4,47.7,29.69,NW,315,2.2,-999.0,51,-99.99,,,0.00,Acu-Link.com,2013-05-16 12:37:00,
2013-05-16 08:52:00,68.9,48.4,29.69,SSE,157,3.2,-999.0,48,-99.99,,,0.00,Acu-Link.com,2013-05-16 12:52:00,
2013-05-16 09:07:00,68.7,47.6,29.70,West,270,2.2,-999.0,47,-99.99,,,0.00,Acu-Link.com,2013-05-16 13:07:00,
2013-05-16 09:23:00,70.3,47.3,29.69,South,180,1.1,-999.0,44,-99.99,,,0.00,Acu-Link.com,2013-05-16 13:23:00,
2013-05-16 09:38:00,70.9,47.9,29.69,SSE,157,1.7,-999.0,44,-99.99,,,0.00,Acu-Link.com,2013-05-16 13:38:00,
2013-05-16 09:53:00,72.1,47.7,29.69,South,180,2.2,-999.0,42,-99.99,,,0.00,Acu-Link.com,2013-05-16 13:53:00,
2013-05-16 10:09:00,73.4,49.5,29.70,NNW,337,3.7,-999.0,43,-99.99,,,0.00,Acu-Link.com,2013-05-16 14:09:00,
2013-05-16 10:24:00,75.2,49.2,29.70,NNE,22,2.2,-999.0,40,-99.99,,,0.00,Acu-Link.com,2013-05-16 14:24:00,
2013-05-16 10:39:00,75.6,49.6,29.70,SE,135,3.2,-999.0,40,-99.99,,,0.00,Acu-Link.com,2013-05-16 14:39:00,
2013-05-16 10:55:00,75.7,49.6,29.70,NNE,22,2.7,-999.0,40,-99.99,,,0.00,Acu-Link.com,2013-05-16 14:55:00,
2013-05-16 11:10:00,75.7,49.0,29.70,NNE,22,2.7,-999.0,39,-99.99,,,0.00,Acu-Link.com,2013-05-16 15:10:00,
2013-05-16 11:25:00,75.4,48.0,29.71,NNE,22,5.8,-999.0,38,-99.99,,,0.00,Acu-Link.com,2013-05-16 15:25:00,
2013-05-16 11:40:00,76.8,48.5,29.71,NE,45,3.2,-999.0,37,-99.99,,,0.00,Acu-Link.com,2013-05-16 15:40:00,
2013-05-16 11:55:00,76.3,47.4,29.71,NE,45,3.2,-999.0,36,-99.99,,,0.00,Acu-Link.com,2013-05-16 15:55:00,
2013-05-16 12:11:00,77.4,47.6,29.71,NNE,22,2.7,-999.0,35,-99.99,,,0.00,Acu-Link.com,2013-05-16 16:11:00,
2013-05-16 12:26:00,79.2,45.9,29.71,West,270,3.7,-999.0,31,-99.99,,,0.00,Acu-Link.com,2013-05-16 16:26:00,
2013-05-16 12:41:00,77.9,47.3,29.71,East,90,2.7,-999.0,34,-99.99,,,0.00,Acu-Link.com,2013-05-16 16:41:00,
2013-05-16 12:56:00,78.1,47.4,29.71,NE,45,7.3,-999.0,34,-99.99,,,0.00,Acu-Link.com,2013-05-16 16:56:00,
2013-05-16 13:12:00,79.5,46.2,29.70,NNE,22,4.2,-999.0,31,-99.99,,,0.00,Acu-Link.com,2013-05-16 17:12:00,
2013-05-16 13:27:00,79.5,47.9,29.70,NE,45,4.7,-999.0,33,-99.99,,,0.00,Acu-Link.com,2013-05-16 17:27:00,
2013-05-16 13:42:00,80.2,47.6,29.70,South,180,3.7,-999.0,32,-99.99,,,0.00,Acu-Link.com,2013-05-16 17:42:00,
2013-05-16 13:57:00,79.0,45.8,29.69,ENE,67,1.7,-999.0,31,-99.99,,,0.00,Acu-Link.com,2013-05-16 17:57:00,
2013-05-16 14:12:00,80.2,47.6,29.69,SSE,157,2.7,-999.0,32,-99.99,,,0.00,Acu-Link.com,2013-05-16 18:12:00,
2013-05-16 14:28:00,79.3,45.2,29.70,NE,45,4.2,-999.0,30,-99.99,,,0.00,Acu-Link.com,2013-05-16 18:28:00,
2013-05-16 14:43:00,80.4,47.8,29.69,SSE,157,4.2,-999.0,32,-99.99,,,0.00,Acu-Link.com,2013-05-16 18:43:00,
2013-05-16 14:58:00,81.7,45.4,29.69,NW,315,7.3,-999.0,28,-99.99,,,0.00,Acu-Link.com,2013-05-16 18:58:00,
2013-05-16 15:13:00,80.6,46.3,29.70,NE,45,4.7,-999.0,30,-99.99,,,0.00,Acu-Link.com,2013-05-16 19:13:00,
2013-05-16 15:29:00,80.2,46.8,29.70,NNE,22,5.3,-999.0,31,-99.99,,,0.00,Acu-Link.com,2013-05-16 19:29:00,
2013-05-16 15:44:00,79.9,46.5,29.69,ENE,67,3.7,-999.0,31,-99.99,,,0.00,Acu-Link.com,2013-05-16 19:44:00,
2013-05-16 15:59:00,77.5,50.6,29.70,NE,45,2.7,-999.0,39,-99.99,,,0.00,Acu-Link.com,2013-05-16 19:59:00,
2013-05-16 16:14:00,77.4,49.8,29.70,East,90,3.2,-999.0,38,-99.99,,,0.00,Acu-Link.com,2013-05-16 20:14:00,
2013-05-16 16:29:00,78.8,48.8,29.70,East,90,4.2,-999.0,35,-99.99,,,0.00,Acu-Link.com,2013-05-16 20:29:00,
2013-05-16 16:44:00,75.2,47.8,29.69,ENE,67,6.3,-999.0,38,-99.99,,,0.00,Acu-Link.com,2013-05-16 20:44:00,
2013-05-16 17:00:00,75.6,49.6,29.70,ESE,112,2.2,-999.0,40,-99.99,,,0.00,Acu-Link.com,2013-05-16 21:00:00,
2013-05-16 17:15:00,75.2,47.8,29.70,East,90,2.7,-999.0,38,-99.99,,,0.00,Acu-Link.com,2013-05-16 21:15:00,
2013-05-16 17:30:00,75.4,48.0,29.70,ESE,112,2.7,-999.0,38,-99.99,,,0.00,Acu-Link.com,2013-05-16 21:30:00,
2013-05-16 17:45:00,77.0,48.0,29.71,ESE,112,4.2,-999.0,36,-99.99,,,0.00,Acu-Link.com,2013-05-16 21:45:00,
2013-05-16 18:00:00,75.7,47.6,29.71,ESE,112,3.2,-999.0,37,-99.99,,,0.00,Acu-Link.com,2013-05-16 22:00:00,
2013-05-16 18:16:00,77.4,49.1,29.71,ESE,112,2.7,-999.0,37,-99.99,,,0.00,Acu-Link.com,2013-05-16 22:16:00,
2013-05-16 18:31:00,76.5,48.3,29.72,ESE,112,4.2,-999.0,37,-99.99,,,0.00,Acu-Link.com,2013-05-16 22:31:00,
2013-05-16 18:46:00,75.6,47.5,29.72,ESE,112,3.2,-999.0,37,-99.99,,,0.00,Acu-Link.com,2013-05-16 22:46:00,
2013-05-16 19:02:00,73.6,46.4,29.73,NE,45,3.2,-999.0,38,-99.99,,,0.00,Acu-Link.com,2013-05-16 23:02:00,
2013-05-16 19:17:00,71.1,44.9,29.74,ENE,67,3.2,-999.0,39,-99.99,,,0.00,Acu-Link.com,2013-05-16 23:17:00,
2013-05-16 19:32:00,68.0,43.4,29.75,NE,45,3.2,-999.0,41,-99.99,,,0.00,Acu-Link.com,2013-05-16 23:32:00,
2013-05-16 19:48:00,66.0,43.5,29.75,ENE,67,2.7,-999.0,44,-99.99,,,0.00,Acu-Link.com,2013-05-16 23:48:00,
2013-05-16 20:03:00,63.1,41.4,29.76,East,90,4.7,-999.0,45,-99.99,,,0.00,Acu-Link.com,2013-05-17 00:03:00,
2013-05-16 20:18:00,60.6,40.3,29.78,ENE,67,5.8,-999.0,47,-99.99,,,0.00,Acu-Link.com,2013-05-17 00:18:00,
2013-05-16 20:33:00,59.0,40.4,29.78,East,90,4.2,-999.0,50,-99.99,,,0.00,Acu-Link.com,2013-05-17 00:33:00,
2013-05-16 20:48:00,57.9,39.9,29.79,East,90,3.2,-999.0,51,-99.99,,,0.00,Acu-Link.com,2013-05-17 00:48:00,
2013-05-16 21:04:00,57.0,40.0,29.80,NNE,22,2.7,-999.0,53,-99.99,,,0.00,Acu-Link.com,2013-05-17 01:04:00,
2013-05-16 21:19:00,56.3,39.9,29.80,East,90,2.2,-999.0,54,-99.99,,,0.00,Acu-Link.com,2013-05-17 01:19:00,
2013-05-16 21:34:00,55.4,39.5,29.82,NE,45,0.0,-999.0,55,-99.99,,,0.00,Acu-Link.com,2013-05-17 01:34:00,
2013-05-16 21:50:00,54.9,40.0,29.82,ENE,67,2.7,-999.0,57,-99.99,,,0.00,Acu-Link.com,2013-05-17 01:50:00,
2013-05-16 22:05:00,54.1,39.7,29.83,ENE,67,2.7,-999.0,58,-99.99,,,0.00,Acu-Link.com,2013-05-17 02:05:00,
2013-05-16 22:20:00,53.8,39.4,29.84,NNE,22,3.7,-999.0,58,-99.99,,,0.00,Acu-Link.com,2013-05-17 02:20:00,
2013-05-16 22:35:00,53.4,39.0,29.84,NNE,22,4.2,-999.0,58,-99.99,,,0.00,Acu-Link.com,2013-05-17 02:35:00,
2013-05-16 22:51:00,53.1,39.2,29.85,ENE,67,2.2,-999.0,59,-99.99,,,0.00,Acu-Link.com,2013-05-17 02:51:00,
2013-05-16 23:06:00,52.2,38.7,29.85,ENE,67,1.7,-999.0,60,-99.99,,,0.00,Acu-Link.com,2013-05-17 03:06:00,
2013-05-16 23:21:00,51.6,39.0,29.85,NE,45,2.2,-999.0,62,-99.99,,,0.00,Acu-Link.com,2013-05-17 03:21:00,
2013-05-16 23:36:00,51.1,38.9,29.87,NE,45,4.2,-999.0,63,-99.99,,,0.00,Acu-Link.com,2013-05-17 03:36:00,
2013-05-16 23:51:00,50.7,39.0,29.86,NNE,22,4.2,-999.0,64,-99.99,,,0.00,Acu-Link.com,2013-05-17 03:51:00,